TimeCDT,TemperatureF,Dew PointF,Humidity,Sea Level PressureIn,VisibilityMPH,Wind Direction,Wind SpeedMPH,Gust SpeedMPH,PrecipitationIn,Events,Conditions,WindDirDegrees,DateUTC
12:17 AM,50.0,44.6,82,29.83,10.0,NNW,10.4,-,N/A,,Clear,330,2013-05-22 05:17:00
12:37 AM,50.0,44.6,82,29.83,10.0,NNW,11.5,-,N/A,,Clear,340,2013-05-22 05:37:00
12:57 AM,48.2,44.6,87,29.83,10.0,NW,9.2,-,N/A,,Clear,320,2013-05-22 05:57:00
1:17 AM,48.2,44.6,87,29.84,10.0,NW,9.2,-,N/A,,Scattered Clouds,320,2013-05-22 06:17:00
1:37 AM,50.0,42.8,76,29.85,10.0,NNW,12.7,-,N/A,,Scattered Clouds,340,2013-05-22 06:37:00
1:57 AM,50.0,42.8,76,29.85,10.0,NNW,12.7,17.3,N/A,,Mostly Cloudy,340,2013-05-22 06:57:00
2:17 AM,50.0,44.6,82,29.86,10.0,NNW,9.2,-,N/A,,Overcast,340,2013-05-22 07:17:00
2:37 AM,50.0,42.8,76,29.86,10.0,NNW,15.0,23.0,N/A,,Overcast,340,2013-05-22 07:37:00
2:59 AM,50.0,42.8,76,29.86,10.0,NNW,12.7,17.3,N/A,,Overcast,340,2013-05-22 07:59:00
3:19 AM,50.0,42.8,76,29.86,10.0,NNW,10.4,-,N/A,,Overcast,340,2013-05-22 08:19:00
3:40 AM,50.0,42.8,76,29.86,10.0,North,12.7,16.1,N/A,,Overcast,350,2013-05-22 08:40:00
4:00 AM,50.0,42.8,76,29.87,10.0,North,12.7,23.0,N/A,,Overcast,350,2013-05-22 09:00:00
4:19 AM,50.0,42.8,76,29.88,10.0,NNW,12.7,18.4,N/A,,Overcast,340,2013-05-22 09:19:00
4:39 AM,50.0,42.8,76,29.89,10.0,NW,12.7,-,N/A,,Overcast,320,2013-05-22 09:39:00
5:03 AM,50.0,42.8,76,29.89,10.0,NNW,12.7,18.4,N/A,,Overcast,340,2013-05-22 10:03:00
5:19 AM,50.0,42.8,76,29.89,10.0,NNW,8.1,-,N/A,,Overcast,330,2013-05-22 10:19:00
5:37 AM,50.0,42.8,76,29.89,10.0,NNW,10.4,17.3,N/A,,Overcast,330,2013-05-22 10:37:00
5:57 AM,50.0,42.8,76,29.89,10.0,NNW,12.7,-,N/A,,Overcast,330,2013-05-22 10:57:00
6:17 AM,48.2,42.8,82,29.90,10.0,NW,9.2,18.4,N/A,,Overcast,320,2013-05-22 11:17:00
6:37 AM,48.2,44.6,87,29.90,10.0,NW,10.4,17.3,N/A,,Overcast,320,2013-05-22 11:37:00
6:57 AM,48.2,44.6,87,29.90,10.0,NW,10.4,16.1,N/A,,Overcast,310,2013-05-22 11:57:00
7:17 AM,48.2,44.6,87,29.90,10.0,NW,10.4,-,N/A,,Overcast,320,2013-05-22 12:17:00
7:37 AM,50.0,44.6,82,29.90,10.0,NW,12.7,-,N/A,,Overcast,320,2013-05-22 12:37:00
7:57 AM,50.0,44.6,82,29.90,10.0,NW,9.2,-,N/A,,Overcast,320,2013-05-22 12:57:00
8:17 AM,51.8,44.6,76,29.90,10.0,NNW,13.8,19.6,N/A,,Mostly Cloudy,330,2013-05-22 13:17:00
8:37 AM,51.8,44.6,76,29.90,10.0,NW,15.0,23.0,N/A,,Overcast,320,2013-05-22 13:37:00
8:57 AM,51.8,44.6,76,29.91,10.0,NW,16.1,20.7,N/A,,Overcast,310,2013-05-22 13:57:00
9:17 AM,53.6,44.6,72,29.91,10.0,NW,16.1,20.7,N/A,,Overcast,310,2013-05-22 14:17:00
9:37 AM,53.6,44.6,72,29.91,10.0,NW,16.1,23.0,N/A,,Overcast,320,2013-05-22 14:37:00
9:57 AM,55.4,44.6,67,29.91,10.0,NNW,17.3,21.9,N/A,,Overcast,330,2013-05-22 14:57:00
10:17 AM,55.4,44.6,67,29.91,10.0,NNW,12.7,24.2,N/A,,Overcast,330,2013-05-22 15:17:00
10:37 AM,55.4,44.6,67,29.91,10.0,NW,13.8,18.4,N/A,,Overcast,320,2013-05-22 15:37:00
10:57 AM,57.2,46.4,67,29.92,10.0,NNW,12.7,24.2,N/A,,Overcast,330,2013-05-22 15:57:00
11:17 AM,57.2,46.4,67,29.92,10.0,WNW,12.7,19.6,N/A,,Overcast,300,2013-05-22 16:17:00
11:38 AM,60.8,46.4,59,29.92,10.0,NNW,10.4,19.6,N/A,,Mostly Cloudy,340,2013-05-22 16:38:00
11:58 AM,62.6,46.4,55,29.91,10.0,NNW,10.4,-,N/A,,Scattered Clouds,340,2013-05-22 16:58:00
12:20 PM,62.6,46.4,55,29.91,10.0,NW,8.1,17.3,N/A,,Scattered Clouds,320,2013-05-22 17:20:00
12:37 PM,64.4,46.4,52,29.91,10.0,North,15.0,18.4,N/A,,Scattered Clouds,350,2013-05-22 17:37:00
12:57 PM,64.4,46.4,52,29.91,10.0,North,11.5,16.1,N/A,,Scattered Clouds,350,2013-05-22 17:57:00
1:17 PM,64.4,46.4,52,29.91,10.0,NNW,11.5,-,N/A,,Scattered Clouds,340,2013-05-22 18:17:00
1:37 PM,66.2,46.4,49,29.90,10.0,NNW,9.2,-,N/A,,Mostly Cloudy,330,2013-05-22 18:37:00
1:58 PM,68.0,46.4,46,29.90,10.0,NNW,12.7,17.3,N/A,,Mostly Cloudy,340,2013-05-22 18:58:00
2:17 PM,68.0,46.4,46,29.90,10.0,North,9.2,-,N/A,,Mostly Cloudy,350,2013-05-22 19:17:00
2:37 PM,69.8,46.4,43,29.90,10.0,North,10.4,17.3,N/A,,Mostly Cloudy,360,2013-05-22 19:37:00
2:57 PM,69.8,46.4,43,29.89,10.0,NNW,15.0,18.4,N/A,,Mostly Cloudy,330,2013-05-22 19:57:00
3:17 PM,69.8,46.4,43,29.89,10.0,NNW,8.1,17.3,N/A,,Mostly Cloudy,340,2013-05-22 20:17:00
3:37 PM,69.8,46.4,43,29.89,10.0,NNW,11.5,17.3,N/A,,Mostly Cloudy,340,2013-05-22 20:37:00
3:57 PM,69.8,46.4,43,29.89,10.0,North,11.5,16.1,N/A,,Mostly Cloudy,360,2013-05-22 20:57:00
4:17 PM,69.8,48.2,46,29.90,10.0,NNE,11.5,18.4,N/A,,Overcast,30,2013-05-22 21:17:00
4:37 PM,69.8,46.4,43,29.90,10.0,North,10.4,17.3,N/A,,Mostly Cloudy,10,2013-05-22 21:37:00
4:57 PM,68.0,46.4,46,29.90,10.0,North,10.4,-,N/A,,Mostly Cloudy,10,2013-05-22 21:57:00
5:17 PM,71.6,48.2,43,29.90,10.0,North,13.8,17.3,N/A,,Mostly Cloudy,360,2013-05-22 22:17:00
5:38 PM,69.8,46.4,43,29.91,10.0,North,11.5,18.4,N/A,,Scattered Clouds,350,2013-05-22 22:38:00
6:00 PM,68.0,46.4,46,29.91,10.0,North,11.5,16.1,N/A,,Scattered Clouds,360,2013-05-22 23:00:00
6:17 PM,68.0,46.4,46,29.91,10.0,North,10.4,17.3,N/A,,Scattered Clouds,360,2013-05-22 23:17:00
6:37 PM,69.8,48.2,46,29.91,10.0,NNE,13.8,19.6,N/A,,Clear,20,2013-05-22 23:37:00
6:57 PM,68.0,46.4,46,29.92,10.0,NNE,12.7,19.6,N/A,,Clear,20,2013-05-22 23:57:00
7:17 PM,66.2,48.2,52,29.93,10.0,NNE,17.3,-,N/A,,Clear,20,2013-05-23 00:17:00
7:37 PM,66.2,48.2,52,29.93,10.0,North,17.3,-,N/A,,Clear,10,2013-05-23 00:37:00
7:57 PM,64.4,46.4,52,29.95,10.0,North,16.1,20.7,N/A,,Clear,360,2013-05-23 00:57:00
8:17 PM,64.4,46.4,52,29.96,10.0,North,16.1,19.6,N/A,,Clear,10,2013-05-23 01:17:00
8:37 PM,62.6,46.4,55,29.97,10.0,North,16.1,-,N/A,,Clear,10,2013-05-23 01:37:00
8:57 PM,60.8,46.4,59,29.98,10.0,North,12.7,-,N/A,,Clear,10,2013-05-23 01:57:00
9:17 PM,59.0,46.4,63,29.99,10.0,North,20.7,25.3,N/A,,Clear,10,2013-05-23 02:17:00
9:37 PM,57.2,48.2,72,30.00,10.0,NNE,13.8,-,N/A,,Clear,20,2013-05-23 02:37:00
9:57 PM,55.4,48.2,77,30.01,10.0,NNE,16.1,-,N/A,,Clear,30,2013-05-23 02:57:00
10:17 PM,55.4,46.4,72,30.02,10.0,NNE,10.4,-,N/A,,Clear,20,2013-05-23 03:17:00
10:37 PM,53.6,46.4,77,30.04,10.0,NNE,10.4,-,N/A,,Clear,20,2013-05-23 03:37:00
10:57 PM,53.6,48.2,82,30.05,10.0,NNE,11.5,18.4,N/A,,Clear,20,2013-05-23 03:57:00
11:19 PM,53.6,46.4,77,30.05,10.0,NNE,12.7,-,N/A,,Clear,20,2013-05-23 04:19:00
11:37 PM,51.8,46.4,82,30.06,10.0,NNE,10.4,-,N/A,,Clear,20,2013-05-23 04:37:00
11:57 PM,51.8,46.4,82,30.07,10.0,NNE,11.5,-,N/A,,Clear,20,2013-05-23 04:57:00